| time (UTC) | temp F | wind direction | speed MPH | gust MPH | rain 1hr in | rain 24hr in | rain mn in | humidity % | barometer mb |
| 20260505083045 | 64 | 136 | 2.0 | 12.0 | 0.00 | 0.26 | 0.00 | 77 | 1008.1 |
| 20260505081550 | 65 | 140 | 2.0 | 5.0 | 0.00 | 0.26 | 0.00 | 79 | 1008.0 |
| 20260505080047 | 67 | 0 | 1.0 | 9.0 | 0.00 | 0.26 | 0.00 | 78 | 1007.8 |
| 20260505074549 | 67 | 264 | 2.0 | 7.0 | 0.00 | 0.26 | 0.00 | 77 | 1007.5 |
| 20260505073049 | 67 | 242 | 7.0 | 13.0 | 0.00 | 0.26 | 0.00 | 76 | 1007.2 |
| 20260505071551 | 68 | 262 | 3.0 | 9.0 | 0.00 | 0.26 | 0.00 | 77 | 1007.0 |
| 20260505070043 | 67 | 269 | 2.0 | 10.0 | 0.00 | 0.26 | 0.00 | 79 | 1006.9 |
| 20260505064559 | 67 | 267 | 3.0 | 11.0 | 0.00 | 0.26 | 0.00 | 80 | 1007.1 |
| 20260505063041 | 67 | 284 | 4.0 | 8.0 | 0.00 | 0.26 | 0.00 | 80 | 1007.1 |
| 20260505061548 | 66 | 290 | 3.0 | 11.0 | 0.00 | 0.26 | 0.00 | 80 | 1007.0 |
| 20260505060049 | 67 | 282 | 5.0 | 13.0 | 0.00 | 0.26 | 0.00 | 78 | 1007.0 |
| 20260505054554 | 66 | 257 | 4.0 | 13.0 | 0.00 | 0.26 | 0.00 | 79 | 1007.2 |
| 20260505053056 | 65 | 278 | 4.0 | 10.0 | 0.00 | 0.26 | 0.00 | 79 | 1007.4 |
| 20260505051545 | 65 | 277 | 3.0 | 11.0 | 0.00 | 0.26 | 0.00 | 79 | 1007.3 |
| 20260505041546 | 63 | 262 | 2.0 | 6.0 | 0.18 | 0.26 | 0.26 | 84 | 1007.8 |
| 20260505040045 | 62 | 254 | 2.0 | 5.0 | 0.20 | 0.26 | 0.26 | 84 | 1007.9 |
| 20260505034540 | 63 | 301 | 4.0 | 12.0 | 0.24 | 0.26 | 0.26 | 84 | 1007.8 |
| 20260505033048 | 63 | 279 | 2.0 | 11.0 | 0.17 | 0.17 | 0.17 | 79 | 1008.3 |
| 20260505031546 | 68 | 325 | 3.0 | 9.0 | 0.08 | 0.08 | 0.08 | 82 | 1007.7 |
| 20260505030100 | 69 | 0 | 1.0 | 12.0 | 0.05 | 0.05 | 0.05 | 80 | 1008.4 |
| 20260505024545 | 71 | 346 | 3.0 | 8.0 | 0.01 | 0.01 | 0.01 | 74 | 1008.3 |
| 20260505023047 | 72 | 16 | 1.0 | 8.0 | 0.00 | 0.00 | 0.00 | 68 | 1007.5 |
| 20260505021540 | 72 | 304 | 3.0 | 7.0 | 0.00 | 0.00 | 0.00 | 67 | 1007.3 |
| 20260505020047 | 73 | 271 | 2.0 | 8.0 | 0.00 | 0.00 | 0.00 | 67 | 1007.6 |
| 20260505014546 | 73 | 284 | 2.0 | 9.0 | 0.00 | 0.00 | 0.00 | 66 | 1007.0 |
| 20260505013043 | 73 | 272 | 2.0 | 7.0 | 0.00 | 0.00 | 0.00 | 64 | 1007.2 |
| 20260505011550 | 74 | 278 | 2.0 | 8.0 | 0.00 | 0.00 | 0.00 | 63 | 1006.7 |
| 20260505010058 | 74 | 258 | 2.0 | 6.0 | 0.00 | 0.00 | 0.00 | 62 | 1006.7 |
| 20260505004549 | 75 | 313 | 2.0 | 7.0 | 0.00 | 0.00 | 0.00 | 60 | 1006.5 |
| 20260505003043 | 76 | 297 | 2.0 | 7.0 | 0.00 | 0.00 | 0.00 | 58 | 1006.6 |
| 20260505001550 | 77 | 292 | 2.0 | 6.0 | 0.00 | 0.00 | 0.00 | 56 | 1006.7 |
| 20260505000042 | 78 | 295 | 2.0 | 10.0 | 0.00 | 0.00 | 0.00 | 53 | 1006.7 |
| 20260504234542 | 78 | 292 | 2.0 | 11.0 | 0.00 | 0.00 | 0.00 | 53 | 1006.8 |
| 20260504233045 | 79 | 291 | 2.0 | 11.0 | 0.00 | 0.00 | 0.00 | 50 | 1007.0 |
| 20260504231544 | 80 | 329 | 2.0 | 10.0 | 0.00 | 0.00 | 0.00 | 48 | 1007.2 |
| 20260504230043 | 81 | 327 | 3.0 | 11.0 | 0.00 | 0.00 | 0.00 | 46 | 1007.3 |
| 20260504224542 | 82 | 279 | 3.0 | 10.0 | 0.00 | 0.00 | 0.00 | 45 | 1007.3 |
| 20260504223047 | 82 | 355 | 3.0 | 11.0 | 0.00 | 0.00 | 0.00 | 44 | 1007.3 |
| 20260504221545 | 83 | 344 | 3.0 | 8.0 | 0.00 | 0.00 | 0.00 | 44 | 1007.3 |
| 20260504220100 | 83 | 321 | 2.0 | 8.0 | 0.00 | 0.00 | 0.00 | 44 | 1007.4 |
| 20260504214551 | 83 | 352 | 4.0 | 10.0 | 0.00 | 0.00 | 0.00 | 44 | 1007.6 |
| 20260504213053 | 83 | 283 | 4.0 | 10.0 | 0.00 | 0.00 | 0.00 | 44 | 1007.7 |
| 20260504211551 | 83 | 105 | 3.0 | 9.0 | 0.00 | 0.00 | 0.00 | 43 | 1007.6 |
| 20260504210045 | 83 | 17 | 2.0 | 13.0 | 0.00 | 0.00 | 0.00 | 43 | 1008.1 |
| 20260504204552 | 83 | 342 | 3.0 | 9.0 | 0.00 | 0.00 | 0.00 | 43 | 1008.2 |
| 20260504203043 | 84 | 355 | 3.0 | 10.0 | 0.00 | 0.00 | 0.00 | 46 | 1008.2 |
| 20260504201547 | 84 | 284 | 3.0 | 11.0 | 0.00 | 0.00 | 0.00 | 42 | 1008.5 |
| 20260504200056 | 83 | 49 | 3.0 | 9.0 | 0.00 | 0.00 | 0.00 | 41 | 1008.4 |
| 20260504194547 | 83 | 16 | 3.0 | 9.0 | 0.00 | 0.00 | 0.00 | 42 | 1008.5 |
| 20260504193052 | 83 | 17 | 5.0 | 11.0 | 0.00 | 0.00 | 0.00 | 42 | 1008.7 |
| 20260504191556 | 84 | 19 | 3.0 | 12.0 | 0.00 | 0.00 | 0.00 | 39 | 1008.7 |
| 20260504190057 | 82 | 288 | 4.0 | 9.0 | 0.00 | 0.00 | 0.00 | 41 | 1009.0 |
| 20260504184559 | 83 | 351 | 3.0 | 10.0 | 0.00 | 0.00 | 0.00 | 42 | 1009.1 |
| 20260504183050 | 82 | 17 | 4.0 | 8.0 | 0.00 | 0.00 | 0.00 | 42 | 1009.4 |
| 20260504181550 | 82 | 9 | 3.0 | 12.0 | 0.00 | 0.00 | 0.00 | 46 | 1009.5 |
| 20260504180042 | 82 | 65 | 4.0 | 10.0 | 0.00 | 0.00 | 0.00 | 43 | 1009.7 |
| 20260504174538 | 80 | 248 | 4.0 | 10.0 | 0.00 | 0.00 | 0.00 | 45 | 1009.6 |
| 20260504173047 | 81 | 49 | 3.0 | 11.0 | 0.00 | 0.00 | 0.00 | 47 | 1009.7 |
| 20260504171544 | 80 | 21 | 4.0 | 10.0 | 0.00 | 0.00 | 0.00 | 45 | 1009.8 |